FW6114 Weather Reports


time (UTC)temp
F
wind
direction
speed
knots
gust
knots
rain 1hr
in
rain 24hr
in
rain mn
in
humidity
%
barometer
mb
20260507090034 52 282 1.7 10.4 0.00 0.00 0.00 60 1010.9
20260507084509 54 290 1.7 10.4 0.00 0.00 0.00 60 1010.8
20260507083045 53 273 2.6 10.4 0.00 0.00 0.00 57 1010.7
20260507081521 52 269 1.7 9.6 0.00 0.00 0.00 58 1010.7
20260507080056 52 288 1.7 7.8 0.00 0.00 0.00 59 1010.8
20260507074527 50 227 1.7 8.7 0.00 0.00 0.00 60 1010.9
20260507073102 49 294 0.0 7.0 0.00 0.00 0.00 62 1011.0
20260507071537 48 257 0.0 8.7 0.00 0.00 0.00 61 1011.1
20260507070025 47 204 0.0 5.2 0.00 0.00 0.00 63 1011.1
20260507064517 46 269 0.9 7.0 0.00 0.00 0.00 64 1011.1
20260507063059 46 289 0.9 8.7 0.00 0.00 0.00 62 1011.2
20260507061531 45 275 1.7 8.7 0.00 0.00 0.00 65 1011.2
20260507060034 44 316 1.7 7.0 0.00 0.00 0.00 67 1011.1
20260507054505 44 317 0.0 5.2 0.00 0.00 0.00 68 1011.0
20260507053045 43 275 0.9 6.1 0.00 0.00 0.00 69 1011.2
20260507051519 43 286 0.9 7.8 0.00 0.00 0.00 68 1011.0
20260507050052 43 307 2.6 10.4 0.00 0.00 0.00 69 1011.1
20260507044544 43 293 0.0 7.8 0.00 0.00 0.00 69 1011.1
20260507043039 42 300 0.9 7.8 0.00 0.00 0.00 71 1011.2
20260507041515 41 271 0.0 5.2 0.00 0.00 0.00 74 1011.3
20260507040050 41 267 0.0 5.2 0.00 0.00 0.00 74 1011.4
20260507034542 41 299 0.0 6.1 0.00 0.00 0.00 75 1011.6
20260507033036 41 246 0.0 3.5 0.00 0.00 0.00 74 1011.7
20260507031512 42 267 0.0 7.0 0.00 0.00 0.00 74 1011.8
20260507030045 41 273 0.0 5.2 0.00 0.00 0.00 75 1011.9
20260507024524 41 284 0.0 0.0 0.00 0.00 0.00 77 1011.9
20260507023056 41 296 0.0 4.3 0.00 0.00 0.00 79 1011.9
20260507021532 41 304 0.0 0.0 0.00 0.00 0.00 81 1012.0
20260507020015 42 296 0.0 3.5 0.00 0.00 0.00 82 1012.1
20260507014550 42 292 0.0 0.0 0.00 0.00 0.00 83 1012.1
20260507013048 42 321 0.0 2.6 0.00 0.00 0.00 84 1012.2
20260507011530 42 305 0.0 3.5 0.00 0.00 0.00 84 1012.3
20260507010034 43 294 0.0 4.3 0.00 0.00 0.00 83 1012.4
20260507004503 43 304 0.0 4.3 0.00 0.00 0.00 83 1012.4
20260507003039 43 273 0.0 3.5 0.00 0.00 0.00 82 1012.6
20260507001514 44 314 0.0 2.6 0.00 0.00 0.00 81 1012.6
20260507000046 44 303 0.0 4.3 0.00 0.00 0.00 80 1012.8
20260506234522 44 292 0.0 2.6 0.00 0.00 0.00 79 1013.0
20260506233103 45 329 0.0 2.6 0.00 0.00 0.00 79 1013.1
20260506231527 45 20 0.0 3.5 0.00 0.00 0.00 79 1013.0
20260506230106 45 24 0.0 4.3 0.00 0.00 0.00 80 1013.1
20260506220023 46 271 0.0 3.5 0.00 0.00 0.00 77 1013.1
20260506214555 46 232 0.0 5.2 0.00 0.00 0.00 75 1013.2
20260506213023 47 265 0.0 2.6 0.00 0.00 0.00 72 1013.1
20260506211610 47 225 0.0 2.6 0.00 0.00 0.00 71 1013.1
20260506191551 48 360 0.0 0.0 0.00 0.01 0.00 72 1012.2
20260506190027 49 57 0.0 0.0 0.00 0.02 0.00 73 1012.1
20260506184521 50 57 0.0 0.0 0.00 0.02 0.00 66 1011.9
20260506183059 51 57 0.0 0.0 0.00 0.02 0.00 62 1011.8
20260506181535 52 65 0.0 2.6 0.00 0.02 0.00 60 1011.7
20260506180023 52 234 0.0 1.7 0.00 0.02 0.00 59 1011.6
20260506174519 53 306 0.0 0.9 0.00 0.02 0.00 59 1011.8
20260506173009 55 288 0.0 4.3 0.00 0.02 0.00 56 1011.9
20260506171505 57 101 0.9 5.2 0.00 0.02 0.00 53 1011.8
20260506170044 56 40 0.0 5.2 0.00 0.02 0.00 53 1011.8
20260506164519 57 132 0.0 6.1 0.00 0.02 0.00 52 1011.6
20260506163059 57 55 0.0 3.5 0.00 0.02 0.00 49 1011.5
20260506161527 57 44 0.0 3.5 0.00 0.02 0.00 51 1011.6
20260506160006 57 34 0.0 4.3 0.00 0.02 0.00 50 1011.7
20260506154547 55 56 0.0 0.0 0.00 0.02 0.00 57 1011.9
20260506153035 54 51 0.0 0.0 0.00 0.02 0.00 58 1011.9
20260506151528 55 119 0.0 0.9 0.00 0.02 0.00 56 1012.0
20260506150021 55 76 0.0 0.0 0.00 0.02 0.00 55 1011.9
20260506144516 56 98 0.0 0.0 0.00 0.02 0.00 56 1012.0
20260506143053 55 128 0.9 7.0 0.00 0.02 0.00 55 1012.1
20260506141604 55 124 0.0 2.6 0.00 0.02 0.00 52 1012.3
20260506140042 55 293 0.0 1.7 0.00 0.02 0.00 52 1012.4
20260506134538 56 143 0.0 5.2 0.00 0.02 0.00 49 1012.4
20260506133030 58 180 0.0 6.1 0.00 0.02 0.00 58 1012.5
20260506131523 56 44 0.0 3.5 0.00 0.02 0.00 55 1012.7
20260506130020 56 130 0.0 3.5 0.00 0.02 0.00 53 1012.7
20260506124549 56 170 0.0 3.5 0.00 0.02 0.00 47 1012.9
20260506123045 56 145 0.0 6.1 0.00 0.02 0.00 49 1012.8
20260506121514 54 55 0.0 0.9 0.00 0.02 0.00 57 1013.0
20260506120112 54 46 0.9 7.0 0.00 0.02 0.00 54 1013.1
20260506114545 54 77 0.0 2.6 0.00 0.02 0.00 56 1013.3
20260506113036 54 60 0.0 4.3 0.00 0.02 0.00 51 1013.4
20260506111528 53 115 0.0 7.8 0.00 0.02 0.00 55 1013.4
20260506110024 53 53 0.0 2.6 0.00 0.02 0.00 54 1013.5
20260506104559 52 167 0.0 6.1 0.00 0.02 0.00 56 1013.6
20260506103036 53 118 0.0 5.2 0.00 0.02 0.00 55 1013.5
20260506101512 53 28 0.0 7.0 0.00 0.02 0.00 54 1013.6
20260506100051 52 144 0.0 6.1 0.00 0.02 0.00 55 1013.7
20260506094533 52 121 0.0 5.2 0.00 0.02 0.00 55 1013.7
20260506093034 52 231 0.0 2.6 0.00 0.02 0.00 57 1013.5
20260506091512 51 105 0.9 6.1 0.00 0.02 0.00 57 1013.5